User: anonymous   Login
Location: Bosmont
(49.7318°N, 3.8587°E)
Time: 14:24:58
(UTC+00:00)
Language:

Cosmos 1892 - Orbit

View from above orbital plane
View from above orbital plane
View from above satellite
View from above satellite

Ground track
Ground track

The orbit data is extracted from the following two-line orbital elements,

1 18421U 87088A   23160.72877134  .00009148  00000-0  36809-3 0  9999
2 18421  82.4968 274.2788 0011962 233.8569 126.1562 15.24687284949606
Epoch (UTC): 09 June 2023 17:29:25
Eccentricity: 0.0011962
inclination: 82.4968°
perigee height: 483 km
apogee height: 500 km
right ascension of ascending node: 274.2788°
argument of perigee: 233.8569°
revolutions per day: 15.24687284
mean anomaly at epoch: 126.1562°
orbit number at epoch: 94960

The dashed part of the orbit path shows where the satellite is in the earth's shadow,  

DLR